Weather in Loymola

Russia / Republic of Karelia     61°58′54″N   31°44′42″E
temp.,
°C
wind,
m/s
gust,
m/s
humid.,
%
clouds,
%
prec.,
mm/h
press.,
hPa
HPBL,
m
1 march, mon
mon100:00−2wsw389856 0.0 1016201
03:000w5109778 0.0 1016571
06:00+1w51098100 0.0 1014528
09:00+1wnw51195100 0.0 1013574
12:00+1w51296100 0.0 1011704
15:00+2w51494100 0.0 1010847
18:00+2w51295100 0.1 1008893
21:00+1w51388100 0.2 1007852
2 march, tue
tue200:00−1wnw4148848 0.0 1007664
03:00−2wnw5148724 0.0 1007653
06:00−3wnw513880 0.0 1005546
09:00−3wnw514893 0.0 1007687
12:00−1nw6127961 0.0 10081144
15:00−1nnw6136831 0.0 10111622
18:00−3nw413780 0.0 1012623
21:00−5wnw312890 0.0 1014359
3 march, wed
wed300:00−4wnw411930 0.0 1014372
03:00−4wnw412911 0.0 1013442
06:00−4wnw4129011 0.0 1012532
09:00−4wnw4129122 0.0 1012536
12:00−2wnw5108666 0.0 1011593
15:00−1w488983 0.0 1008664
18:00−2sw4898100 0.8 1003536
21:00+1w71397100 3.4 998996
4 march, thu
thu400:00−1wnw81385100 0.6 995983
03:00−4nw4109595 0.7 996429
06:00−5nnw379692 0.4 997297
09:00−5n489395 0.8 998487
12:00−5n478894 0.1 1000742
15:00−5n488397 0.3 1002954
18:00−7nnw398988 0.1 1003343
21:00−9nw399267 0.1 1004306
5 march, fri
fri500:00−10nw389431 0.0 1005208
03:00−11nw269563 0.0 1006191
06:00−11nw269599 0.1 1007213
09:00−12nnw269595 0.1 1008206
12:00−8nnw239063 0.0 1010356
15:00−7n348382 0.1 1012767
18:00−10n278765 0.1 1014161
21:00−13nne129153 0.1 101521